TIME,DELAY(SENSOR),PRES,OXYGEN,RAWTEMP,T(OPTODE),TCPHASE,FLUOR,BETA(BETA700),BETA(BETA412),BETA(BETA440),CDOM,C(CSC),ED(ED411.90),ED(ED443.80),ED(ED489.40),ED(ED554.70),LU(LU412.20),LU(LU443.80),LU(LU489.40),LU(LU555.00),COMP,TILTX,TILTY,CHECK
1340661513,5805,846.5599975585938000,189.1723022460937500,481.5057983398437500,8.1021442413330080,38.2662200927734400,51,102,101,80,82,14795,2146956827,2147517229,2147293248,2147517074,2147087990,2146920996,2147714212,2147119405,500,-2,8,36482
1340665109,5804,960.9500122070312000,230.3303070068359400,534.0145874023438000,6.4702029228210450,36.7592315673828100,52,103,100,80,82,14786,2146956470,2147518747,2147302006,2147526464,2147090468,2146922962,2147723657,2147115008,1564,-1,8,21314
1340668709,5808,984.5000000000000000,242.0991058349609400,544.5894165039062000,6.1391577720642090,36.3363304138183600,52,102,101,79,83,14784,2146955876,2147516900,2147299309,2147528411,2147091099,2146919817,2147722962,2147116278,284,-1,8,11791
1340672309,5809,990.5700073242188000,243.8986968994140600,546.0435791015625000,6.0935649871826170,36.2720298767089840,51,102,102,80,82,14785,2146955748,2147520704,2147300178,2147528548,2147091638,2146916909,2147725458,2147112329,84,-1,8,54108
1340675909,5806,996.1400146484375000,244.6253967285156200,546.0991210937500000,6.0918269157409670,36.2360382080078100,53,104,102,81,82,14778,2146956498,2147519369,2147301110,2147530477,2147092278,2146919890,2147729673,2147120356,3138,-1,8,43953
1340679509,5803,999.5599975585938000,245.2431945800781200,546.1577148437500000,6.0899868011474610,36.2066383361816400,52,100,101,81,83,14778,2146957421,2147516635,2147299684,2147530998,2147093028,2146915913,2147725540,2147117778,3241,-2,8,35304
1340683109,5809,1006.7500000000000000,245.4895935058593800,546.6185913085938000,6.0755348205566410,36.2023391723632800,52,104,100,79,82,14779,2146955812,2147519670,2147297956,2147531154,2147091090,2146914267,2147725440,2147117540,102,-1,8,42878
1340686709,5804,996.5800170898438000,246.3495025634765600,547.4818725585938000,6.0484580993652340,36.1753196716308600,53,102,100,81,82,14776,2146957915,2147517010,2147301110,2147530944,2147090358,2146921490,2147725677,2147117248,246,-1,8,45836
1340690309,5805,1002.2399902343750000,247.8477020263672000,548.8204956054688000,6.0064601898193360,36.1250991821289060,52,103,101,78,82,14764,2146955894,2147518601,2147301284,2147528118,2147089810,2146916269,2147730377,2147114706,3398,-1,8,42776
1340693909,5805,1010.0999755859375000,248.6674041748047000,548.8781127929688000,6.0046520233154300,36.0857315063476560,53,103,102,79,81,14766,2146959689,2147517760,2147300507,2147531282,2147088000,2146919652,2147730587,2147114450,3487,-2,8,46257
1340697509,5806,1012.1199951171875000,246.8757019042968800,547.1766967773438000,6.0580291748046875,36.1432609558105500,52,106,100,78,82,14766,2146955538,2147519030,2147299876,2147529718,2147090477,2146921097,2147732004,2147115456,3500,-1,8,4726
1340701109,5808,1002.7700195312500000,245.1728973388672000,547.5797729492188000,6.0453829765319820,36.2353897094726560,52,103,101,79,82,14759,2146955638,2147519021,2147302061,2147527753,2147091227,2146913654,2147728073,2147117604,323,-1,8,32623
1340704709,5807,1002.3699951171875000,246.6855926513672000,548.0659790039062000,6.0301318168640140,36.1689414978027340,52,103,100,81,81,14758,2146954166,2147518646,2147299995,2147527497,2147091181,2146920237,2147725138,2147118976,518,-1,8,46899
1340708309,5806,1009.8800048828125000,246.9781951904297000,548.5477294921875000,6.0150179862976070,36.1627311706543000,52,101,100,79,81,14759,2146956982,2147517878,2147297609,2147529234,2147090093,2146915657,2147728118,2147118564,3265,-1,8,25789
1340711909,5804,1008.0100097656250000,246.7855987548828000,548.4561157226562000,6.0178928375244140,36.1705589294433600,52,108,101,79,82,14749,2146956205,2147516882,2147299062,2147528265,2147089417,2146917961,2147729499,2147117476,3126,-1,8,62120
1340715509,5807,1005.4799804687500000,247.9438018798828000,549.0620117187500000,5.9988799095153810,36.1244583129882800,51,103,100,79,81,14760,2146954002,2147518436,2147300461,2147527872,2147090788,2146917321,2147721947,2147117504,321,-1,8,5749
1340719109,5808,1002.3699951171875000,250.7297058105468800,551.8405151367188000,5.9116587638854980,36.0377693176269500,52,103,100,80,82,14752,2146956196,2147514258,2147299126,2147529106,2147089179,2146916233,2147731099,2147118509,138,-1,8,29435
1340722709,5805,1006.4400024414062000,250.8009948730468800,550.9025268554688000,5.9411129951477050,36.0176315307617200,52,101,101,79,81,14753,2146960338,2147517284,2147299072,2147528877,2147089170,2146916196,2147729490,2147114002,3352,-1,8,16150
1340726309,5805,1003.3699951171875000,248.2053985595703000,550.4906005859375000,5.9540419578552250,36.1375007629394500,52,103,100,79,81,14755,2146957732,2147516452,2147298240,2147528000,2147089938,2146919332,2147726875,2147115328,3275,-1,8,22628
1340729909,5806,1014.5999755859375000,249.3638000488281200,549.3632202148438000,5.9894289970397950,36.0595207214355500,52,102,100,80,81,14753,2146955648,2147520585,2147301878,2147525979,2147090102,2146915117,2147726829,2147119616,2291,-1,8,2111
1340733509,5805,1008.5800170898438000,248.8730010986328000,549.4776000976562000,5.9858398437500000,36.0863418579101560,52,103,99,80,83,14752,2146955721,2147516086,2147298176,2147523474,2147091373,2146913718,2147730441,2147115894,3473,-1,8,59653
1340737109,5804,1007.5399780273438000,249.0711975097656200,550.4796142578125000,5.9543881416320800,36.0948295593261700,52,105,101,80,81,14752,2146958336,2147519049,2147299830,2147529069,2147092214,2146919414,2147724736,2147118619,3420,-1,8,49339
1340740709,5805,1012.1799926757812000,248.0068054199218800,549.0598144531250000,5.9989528656005860,36.1210708618164060,52,102,100,79,81,14751,2146958500,2147519168,2147299465,2147529572,2147089718,2146918299,2147729069,2147118912,240,-1,8,39234
1340744309,5805,1009.1199951171875000,247.3773040771484400,549.0460815429688000,5.9993801116943360,36.1525993347168000,52,102,101,80,82,14748,2146956827,2147518080,2147297737,2147528603,2147091675,2146917312,2147729334,2147118034,3045,-1,8,13390
1340747909,5806,1001.7600097656250000,246.3619995117187500,548.7581176757812000,6.0084171295166020,36.1974296569824200,52,103,101,80,82,14748,2146955392,2147521216,2147301714,2147528576,2147089874,2146920950,2147728045,2147113581,3301,-1,8,39129
1340751509,5805,1011.3300170898438000,246.5991973876953000,548.7908935546875000,6.0073890686035160,36.1859092712402340,52,103,100,79,81,14747,2146957174,2147522477,2147297380,2147530788,2147089554,2146921828,2147729508,2147117348,3278,-1,8,65230
1340755109,5806,1016.6500244140625000,246.0706939697265600,549.3247070312500000,5.9906368255615230,36.2223587036132800,52,106,100,78,81,14748,2146958454,2147514788,2147298212,2147529709,2147092516,2146919158,2147729810,2147117220,3368,-1,8,48268
1340758709,5809,1009.8800048828125000,245.9494934082031200,549.6585083007812000,5.9801621437072750,36.2344512939453100,52,105,100,79,81,14747,2146955958,2147521133,2147297188,2147526482,2147087661,2146919798,2147729929,2147119149,89,-1,8,47920
1340762309,5804,1021.0499877929688000,247.2947998046875000,547.6715698242188000,6.0425071716308590,36.1312599182128900,52,104,100,80,81,14747,2146958857,2147517750,2147299949,2147530889,2147090459,2146917595,2147725604,2147119753,2852,-1,8,65225
1340765909,5808,1013.4799804687500000,247.0272979736328000,548.0277099609375000,6.0313339233398440,36.1511497497558600,52,104,100,80,81,14746,2146959753,2147521234,2147297892,2147528594,2147088082,2146917577,2147727890,2147118637,317,-1,8,55300
1340769509,5803,1012.7199707031250000,246.3674011230468800,549.8167724609375000,5.9751911163330080,36.2163696289062500,53,104,100,79,81,14741,2146957833,2147520054,2147301686,2147525778,2147091712,2146917860,2147726665,2147115949,3324,-1,8,17220
1340773109,5808,1011.0000000000000000,248.0684967041015600,549.8703002929688000,5.9735150337219240,36.1325302124023440,52,106,101,79,82,14738,2146955117,2147516480,2147299648,2147524690,2147088548,2146913673,2147726454,2147117275,50,-1,8,17646
1340776709,5806,1018.3400268554688000,250.8916015625000000,551.3466186523438000,5.9271678924560550,36.0209312438964840,52,104,100,80,82,14739,2146952795,2147518171,2147301458,2147528987,2147088704,2146915766,2147727616,2147115739,2934,-1,8,20301
1340780309,5802,1013.8099975585938000,247.5281066894531200,550.8798828125000000,5.9418220520019530,36.1780204772949200,52,105,101,80,82,14739,2146957641,2147514724,2147299328,2147523446,2147090587,2146915154,2147726208,2147118674,3480,-1,8,3810
1340783909,5804,1020.3599853515625000,250.7608032226562500,551.1904296875000000,5.9320721626281740,36.0246505737304700,52,104,100,81,81,14737,2146951168,2147514779,2147300918,2147528658,2147091584,2146918153,2147723977,2147116452,3309,-1,8,7551
1340787509,5804,1009.0999755859375000,249.4116973876953000,552.5360717773438000,5.8898119926452640,36.1152687072753900,52,102,101,81,81,14738,2146957238,2147518454,2147297764,2147530989,2147090368,2146915510,2147725202,2147118564,2950,-1,8,9534
1340791109,5807,1014.6199951171875000,248.1793060302734400,551.2741699218750000,5.9294428825378420,36.1525917053222660,51,103,100,79,82,14735,2146954605,2147520201,2147301293,2147528237,2147093229,2146913856,2147723428,2147118500,403,-1,8,46504
1340794709,5803,1015.4000244140625000,249.9752960205078000,551.8121948242188000,5.9125480651855470,36.0743598937988300,52,102,100,79,82,14732,2146956781,2147517833,2147301211,2147526665,2147094774,2146911872,2147730038,2147118226,213,-1,8,27229
1340798309,5804,1018.9600219726562000,251.4813995361328000,551.9544067382812000,5.9080810546875000,36.0032806396484400,51,103,101,80,82,14724,2146957915,2147518482,2147301705,2147526080,2147092123,2146912987,2147725348,2147119049,3542,-1,8,14374
1340801909,5805,1021.9199829101562000,249.0733947753906200,550.0654296875000000,5.9673900604248050,36.0872306823730500,52,101,100,79,82,14735,2146960054,2147513746,2147300260,2147528201,2147089627,2146911643,2147725522,2147120429,3315,-1,8,46164
1340804754,5809,1026.4799804687500000,249.0220031738281200,551.2708129882812000,5.9295477867126465,36.1114692687988300,52,104,100,79,82,14778,2146957412,2147520941,2147299940,2147527131,2147088704,2146916644,2147726966,2147118710,9,-1,8,6696
